Powrót do katalogu

THOR ABLESTAR DEB

AktywnyLEO
NORAD 144·DEBRIS·🇺🇸 United States

Wystrzelony Jun 29, 1961 z Cape Canaveral Space Force Station

Loading…

Następne Przeloty (najbliższe 24 godziny)

TLE

ŚwieżeSource: Space-Track

Epoka: Sep 7, 2026, 07:12 UTC

1 00144U 61015AE  26250.30007870  .00000119  00000-0  15466-3 0  9998
2 00144  66.4993 184.8243 0047987 300.7216  58.9137 13.91712536296077

Śledź THOR ABLESTAR DEB w czasie rzeczywistym z AllMySat

Download on the App Store